User: anonymous   Login
Location: Unspecified
(0.0000°N, 0.0000°E)
Time: 14:08:48
(UTC+02:00)
Language:

Cosmos 1980 Rocket - Orbit

View from above orbital plane
View from above orbital plane
View from above satellite
View from above satellite

Ground track
Ground track

The orbit data is extracted from the following two-line orbital elements,

1 19650U 88102B   15243.18534830 -.00000072  00000-0 -12314-4 0  9993
2 19650 071.0007 314.4462 0012008 102.7552 257.4914 14.15722082383148
Epoch (UTC): 31 August 2015 04:26:54
Eccentricity: 0.0012008
inclination: 71.0007°
perigee height: 831 km
apogee height: 848 km
right ascension of ascending node: 314.4462°
argument of perigee: 102.7552°
revolutions per day: 14.15722082
mean anomaly at epoch: 257.4914°
orbit number at epoch: 38314

The dashed part of the orbit path shows where the satellite is in the earth's shadow,  

DLR